GPS BIIF-12 (PRN 32)

Last updated on Tue Jul 01 2025 00:03:13 GMT+0000 (Coordinated Universal Time)

1 41328U 16007A 25180.86674607 -.00000013 00000+0 00000+0 0 9995 2 41328 55.3077 103.4433 0087898 242.9185 116.1847 2.00569172 68819
UTC large
Height (km)
Speed (km/s)
/
Latitude / Longitude
Inclination (degrees)
Orbital Period (minutes)
Azimuth
Elevation
Range (km)
Doppler Factor

Next 0 passes for location: London (51.5072 / 0.1276)

Sorry there are no passes over London.